Weather History for KDTW - June, 2013

Change the Weather History Date:

Friday, June 14, 2013

  Actual Average Record
Temperature  
Mean Temperature 70 °F 69 °F  
Max Temperature 79 °F 79 °F 96 °F (1988)
Min Temperature 61 °F 59 °F 42 °F (1978)
Degree Days  
Heating Degree Days 0 1  
Month to date heating degree days 21 26  
Since 1 June heating degree days 21 26  
Since 1 July heating degree days 5927 6128  
Cooling Degree Days 5 5  
Month to date cooling degree days 37 56  
Year to date cooling degree days 140 104  
Since 1 June cooling degree days 37 56  
Growing Degree Days 20 (Base 50)    
Moisture  
Dew Point 53 °F    
Average Humidity 54    
Maximum Humidity 72    
Minimum Humidity 36    
Precipitation  
Precipitation 0.00 in 0.13 in 2.00 in (1966)
Month to date precipitation 2.35 1.71  
Year to date precipitation 17.20 14.25  
Snow  
Snow 0.00 in 0.00 in 0.00 in ()
Month to date snowfall 0.0 0.0  
Since 1 June snowfall 0.0 0.0  
Since 1 July snowfall 47.7 42.5  
Snow Depth 0.00 in    
Sea Level Pressure  
Sea Level Pressure 30.02 in    
Wind  
Wind Speed 7 mph (North)    
Max Wind Speed 15 mph    
Max Gust Speed 20 mph    
Visibility 10 miles    
Events      
T = Trace of Precipitation, MM = Missing Value Source: NWS Daily Summary

Daily Weather History Graph

Daily Weather History Graph

Search for Another Location

Airport or City:

Trip Planner

Search our weather history database for the weather conditions in past years. The results will help you decide how hot, cold, wet, or windy it might be!

Date:

Astronomy

Jun. 14, 2013 Rise Set
Actual Time 5:56 AM EDT 9:11 PM EDT
Civil Twilight 5:21 AM EDT 9:45 PM EDT
Nautical Twilight 4:37 AM EDT 10:30 PM EDT
Astronomical Twilight 3:43 AM EDT 11:24 PM EDT
Moon 11:35 AM EDT (6/14) 12:11 AM EDT (6/14)
Length of Visible Light 16h 24m
Length of Day
15h 14m
Waxing Crescent, 30% of the Moon is Illuminated
Jun 14
Waxing Crescent
Jun 16
First Quarter
Jun 23
Full
Jun 30
Last Quarter
Jul 8
New

Hourly Weather History & Observations

Time (EDT) Temp. Dew Point Humidity Pressure Visibility Wind Dir Wind Speed Gust Speed Precip Events Conditions
12:53 AM 66.9 °F 52.0 °F 59% 29.94 in 10.0 mi North 13.8 mph 19.6 mph N/A   Mostly Cloudy
1:53 AM 66.0 °F 53.1 °F 63% 29.94 in 10.0 mi NNW 10.4 mph - N/A   Mostly Cloudy
2:53 AM 64.0 °F 54.0 °F 70% 29.94 in 10.0 mi NNW 8.1 mph - N/A   Scattered Clouds
3:53 AM 63.0 °F 54.0 °F 72% 29.94 in 10.0 mi NW 5.8 mph - N/A   Scattered Clouds
4:53 AM 63.0 °F 54.0 °F 72% 29.95 in 10.0 mi NNW 8.1 mph - N/A   Mostly Cloudy
5:53 AM 62.1 °F 53.1 °F 72% 29.96 in 10.0 mi NNW 9.2 mph - N/A   Mostly Cloudy
6:53 AM 62.1 °F 53.1 °F 72% 29.99 in 10.0 mi NNW 8.1 mph - N/A   Scattered Clouds
7:53 AM 63.0 °F 53.1 °F 70% 30.01 in 10.0 mi North 9.2 mph - N/A   Partly Cloudy
8:53 AM 64.9 °F 53.1 °F 65% 30.03 in 10.0 mi NNW 10.4 mph - N/A   Partly Cloudy
9:53 AM 66.9 °F 53.1 °F 61% 30.06 in 10.0 mi NW 8.1 mph - N/A   Scattered Clouds
10:53 AM 69.1 °F 54.0 °F 58% 30.07 in 10.0 mi North 12.7 mph 17.3 mph N/A   Scattered Clouds
11:53 AM 71.1 °F 53.1 °F 53% 30.06 in 10.0 mi North 11.5 mph 19.6 mph N/A   Scattered Clouds
12:53 PM 73.0 °F 54.0 °F 51% 30.06 in 10.0 mi NNW 9.2 mph - N/A   Partly Cloudy
1:53 PM 73.9 °F 53.1 °F 48% 30.06 in 10.0 mi North 9.2 mph 17.3 mph N/A   Partly Cloudy
2:53 PM 75.9 °F 53.1 °F 45% 30.05 in 10.0 mi NNE 10.4 mph - N/A   Partly Cloudy
3:53 PM 75.9 °F 52.0 °F 43% 30.04 in 10.0 mi NNW 6.9 mph - N/A   Partly Cloudy
4:53 PM 77.0 °F 50.0 °F 39% 30.03 in 10.0 mi Calm Calm - N/A   Scattered Clouds
5:53 PM 77.0 °F 50.0 °F 39% 30.04 in 10.0 mi Calm Calm - N/A   Scattered Clouds
6:53 PM 77.0 °F 48.9 °F 37% 30.03 in 10.0 mi NNE 4.6 mph - N/A   Scattered Clouds
7:53 PM 73.0 °F 57.0 °F 57% 30.04 in 10.0 mi SSE 6.9 mph - N/A   Scattered Clouds
8:53 PM 71.1 °F 55.0 °F 57% 30.04 in 10.0 mi SE 6.9 mph - N/A   Scattered Clouds
9:53 PM 68.0 °F 55.9 °F 65% 30.06 in 10.0 mi Calm Calm - N/A   Partly Cloudy
10:53 PM 66.0 °F 54.0 °F 65% 30.09 in 10.0 mi ESE 3.5 mph - N/A   Clear
11:53 PM 64.0 °F 54.0 °F 70% 30.08 in 10.0 mi East 3.5 mph - N/A   Clear